Location: Provincia di Roma
(41.9667°N, 12.6667°E)
Time: 10:15:50
(UTC+00:00)

Daily predictions for brighter satellites

Satellite Brightness Start Highest point End
(mag) Time Altitude Azimuth Time Altitude Azimuth Time Altitude Azimuth
CZ-2C R/B 2.8 15:59:42 10° SSE 16:04:32 76° ENE 16:09:18 10° N
SL-16 R/B 3.5 16:02:43 10° N 16:06:40 19° NE 16:10:36 10° E
Cosmos 2082 Rocket 2.2 16:01:20 10° SSW 16:06:59 77° ESE 16:12:40 10° NNE
Cosmos 540 Rocket 3.7 16:02:54 10° SSW 16:07:59 72° WNW 16:13:07 10° NNE
ARGOS 4.5 16:05:39 10° E 16:09:04 17° ENE 16:12:28 10° NNE
Sich 1 3.1 16:06:32 10° N 16:10:49 59° E 16:15:05 10° SSE
Cosmos 1500 Rocket 4.2 16:06:28 10° NNW 16:10:51 60° W 16:15:08 10° S
FengYun 1-2 T 4.2 16:06:46 10° SSE 16:12:16 65° ENE 16:17:45 10° N
COSMOS 2455 3.1 16:07:42 10° SW 16:13:43 74° WNW 16:19:46 10° NNE
SMAP 3.2 16:10:33 10° SSE 16:15:03 52° ENE 16:19:34 10° N
NOAA 6 4.1 16:11:31 10° SSE 16:16:31 55° ENE 16:21:30 10° N
Cosmos 1933 4.0 16:16:11 10° SSW 16:20:10 58° W 16:24:09 10° N
Cosmos 1833 Rocket 3.9 16:15:18 10° SW 16:20:32 39° WNW 16:25:49 10° N
Cosmos 1805 Rocket 3.7 16:18:59 10° N 16:23:20 77° W 16:27:39 10° S
Cosmos 2278 3.8 16:18:26 10° NNW 16:24:05 58° ENE 16:29:40 10° SE
CZ-4B DEB 4.4 16:20:21 10° SE 16:25:39 52° ENE 16:30:58 10° N
Cosmos 1602 4.2 16:22:20 10° NNW 16:26:11 64° W 16:30:01 10° S
USA 305 4.3 16:27:00 10° NNW 16:30:19 22° NNE 16:32:51 14° ENE
CZ-4B R/B 3.5 16:27:14 10° S 16:31:10 59° WSW 16:34:55 10° NNW
CZ-2C R/B 3.4 16:27:25 10° NE 16:31:54 29° E 16:36:22 10° SSE
SL-24 R/B - RUBIN 2 3.9 16:28:54 10° NW 16:33:19 69° WSW 16:37:35 10° SSE
Cosmos 1500 3.3 16:32:43 10° N 16:36:28 76° W 16:40:09 10° S
Meteor 1-14 Rocket 4.3 16:31:03 10° N 16:36:55 66° ENE 16:42:50 10° SSE
Cosmos 44 Rocket 3.5 16:33:23 10° NNW 16:38:07 46° NE 16:42:41 10° SE
Cosmos 1814 Rocket 4.1 16:35:36 10° SSW 16:40:50 80° WNW 16:46:01 10° NNE
Meteor 2-16 Rocket 4.4 16:35:03 10° N 16:41:10 65° E 16:47:14 10° SSE
Cosmos 921 Rocket 3.2 16:38:01 10° S 16:42:01 46° ESE 16:45:57 11° NNE
Cosmos 1570 Rocket 4.1 16:42:27 10° SSW 16:47:41 81° WNW 16:52:57 10° NNE
CZ-4B R/B 3.4 16:46:39 10° SE 16:51:46 46° ENE 16:56:50 10° N
MOS 1-B Rocket 4.2 16:47:09 10° NNE 16:53:18 68° ESE 17:00:26 10° S
CZ-2D R/B 3.1 16:50:20 10° SSE 16:54:08 71° ENE 16:57:56 10° N
USA 267 3.5 16:50:26 13° NE 16:56:22 65° NW 17:02:48 10° WSW
MOS 1-B 4.3 16:50:51 10° SSE 16:56:34 69° ENE 17:02:20 10° N
Cosmos 1939 Rocket 4.1 16:52:53 10° S 16:56:50 46° W 17:00:46 10° NNW
Cosmos 2298 Rocket 4.2 16:51:46 10° N 16:56:57 50° ENE 17:02:07 10° SE
ATLAS CENTAUR R/B 4.1 16:49:42 10° WSW 16:57:53 32° NW 17:01:30 12° NNE
Cosmos 1151 Rocket 3.4 16:55:43 10° SSW 17:00:00 65° W 17:04:21 10° N
Meteor 1-27 Rocket 4.2 16:55:12 10° SSE 17:00:07 34° E 17:04:01 15° NNE
APEX 2.9 16:58:56 10° SSW 17:02:49 70° ESE 17:04:24 29° NE
USA 306 3.9 16:59:12 10° NW 17:02:54 28° NNE 17:03:51 25° NE
Meteor 2-6 Rocket 4.2 16:57:13 10° S 17:02:57 85° E 17:08:34 10° N
COSMO-SKYMED 1 2.7 16:59:11 12° NNE 17:03:09 53° E 17:07:23 10° S
Cosmos 1633 Rocket 3.1 16:59:05 10° N 17:03:29 82° W 17:07:52 10° S
SJ-11-01 4.5 17:00:06 10° SE 17:04:38 47° ENE 17:09:10 10° N
Cosmos 1666 3.1 17:01:29 10° NNW 17:05:10 63° W 17:08:50 10° S
Landsat 5 3.9 17:05:03 28° ENE 17:06:23 36° E 17:10:00 10° SSE
PAYLOAD B 4.2 17:01:02 10° SSE 17:06:38 89° E 17:12:16 10° NNW
Cosmos 2360 Rocket 3.1 17:03:12 10° N 17:07:50 25° NE 17:08:17 25° ENE
ISS -1.8 17:05:25 10° WNW 17:08:25 30° SW 17:11:25 10° SSE
Cosmos 1818 3.5 17:08:14 10° NNW 17:13:45 90° WSW 17:19:11 10° SSE
Cosmos 2279 Rocket 4.4 17:09:49 10° SSW 17:15:57 63° W 17:22:07 10° N
CZ-2C R/B 2.7 17:13:34 10° WSW 17:17:24 31° S 17:19:13 22° SE
Meteor 2-15 4.4 17:12:09 10° S 17:18:16 86° E 17:24:23 10° N
ATLAS 5 CENTAUR R/B 2.6 17:15:01 10° NNW 17:19:39 32° NNE 17:19:39 32° NNE
Cosmos 2266 Rocket 4.0 17:16:21 10° N 17:22:46 72° E 17:29:10 10° SSE
SL-08 RB Rocket 3.9 17:18:52 10° SE 17:23:19 49° ENE 17:27:44 10° N
USA 307 3.7 17:19:41 10° NW 17:23:33 33° NNE 17:23:33 33° NNE
CZ-4C R/B 3.6 17:17:35 10° NW 17:25:00 63° WSW 17:33:26 10° SSE
Lacrosse 5 rocket 1.3 17:22:53 10° NW 17:26:53 82° SW 17:28:57 29° SE
USA 234 3.2 17:22:36 13° SE 17:28:31 81° NE 17:35:04 10° NW
ATLAS 2AS CENTAUR R/B 4.4 17:26:06 10° NNW 17:30:18 16° NNE 17:31:18 15° NNE
Cosmos 1933 Rocket 3.4 17:26:17 10° N 17:30:37 69° E 17:34:55 10° SSE
Tiangong 2.7 17:27:55 10° SW 17:30:10 26° S 17:30:10 26° S
Cosmos 2322 Rocket 2.2 17:25:11 10° NNW 17:30:50 57° ENE 17:35:03 18° SE
Cosmos 2150 Rocket 4.0 17:27:19 10° NNW 17:32:32 86° WSW 17:37:48 10° SSE
Cosmos 1980 Rocket 4.3 17:28:56 10° NW 17:33:37 27° WSW 17:38:16 10° SSW
Cosmos 1867 3.5 17:30:56 10° SSW 17:36:22 81° ESE 17:38:27 39° NE
NOSS 3-3 (A) 3.8 17:31:05 10° SSW 17:36:33 59° ESE 17:38:22 42° ENE
Cosmos 1470 Rocket 4.0 17:32:13 10° NNW 17:36:38 62° W 17:41:03 10° S
NOSS 3-3 (C) 3.8 17:31:11 10° SSW 17:36:39 59° ESE 17:38:27 42° ENE
Cosmos 1544 3.2 17:33:06 10° NNW 17:36:42 71° W 17:40:19 10° S
H-2A R/B 2.9 17:31:57 10° S 17:36:56 50° W 17:41:49 10° NNW
DEBRIS 2.8 17:36:04 10° SW 17:38:34 61° SE 17:38:35 61° SE
X-37B 1.7 17:35:47 10° WSW 17:37:49 40° W 17:37:49 40° W
Okean O Rocket 1.6 17:34:16 10° SSE 17:38:42 82° WSW 17:43:12 10° NNW
Cosmos 1125 Rocket 3.5 17:33:30 10° NNW 17:38:46 82° WSW 17:44:03 10° SSE
USA 32 3.9 17:36:48 10° S 17:42:00 82° E 17:46:22 15° N
Meteor 1-11 Rocket 3.7 17:38:15 10° N 17:43:57 86° W 17:49:45 10° S
USA 308 3.8 17:42:16 10° NW 17:45:21 37° N 17:45:21 37° N
ARGOS 3.4 17:43:21 10° S 17:48:44 69° WSW 17:54:08 10° NNW
SL-16 R/B 2.3 17:45:44 10° NNW 17:51:24 75° WSW 17:57:02 10° SSE
Cosmos 2082 Rocket 4.5 17:47:52 10° W 17:51:43 18° NW 17:55:36 10° N
Cosmos 1241 Rocket 4.4 17:53:27 10° SSW 17:59:52 83° WNW 18:01:58 45° NNE
Feng Yun 1-1 Rocket 4.3 17:57:37 10° SSE 18:03:33 83° WSW 18:09:25 10° NNW
USA 305 4.3 18:06:31 10° NW 18:08:52 32° NW 18:08:52 32° NW
Cosmos 2333 Rocket 3.8 18:06:00 10° N 18:08:05 21° N 18:08:05 21° N
CZ-2C R/B 4.0 18:07:34 10° N 18:12:12 34° WNW 18:16:49 10° SW
Aureole 3 Rocket 4.3 18:12:12 10° SSW 18:16:30 50° WNW 18:22:33 10° N
Cosmos 2219 Rocket 4.2 18:14:00 10° N 18:15:05 15° N 18:15:05 15° N
USA 267 4.5 18:37:47 28° N 18:38:38 29° NNW 18:44:05 10° WNW
Cosmos 2360 Rocket 3.5 18:46:39 10° NNW 18:50:08 36° NW 18:50:08 36° NW
CZ-2C R/B 4.4 18:52:57 10° WSW 18:53:23 12° WSW 18:53:23 12° WSW
Cosmos 2322 Rocket 4.4 19:10:16 10° NW 19:14:23 21° W 19:17:09 15° SW
